Home   Weather   Eugene   Past weeks

Flag for USA Past Weather in Eugene, Oregon, USA — Yesterday and Last 2 Weeks

Now
31 °F

Overcast.


Feels Like: 23 °F
Forecast: 31 / 48 °F
Wind: 9 mph from North

Location: Mahlon Sweet Field

Current Time: Dec 7, 2016 at 8:09:59 pm

Latest Report: Dec 7, 2016 at 7:54 pm


Visibility: 10 mi

Pressure: 30.11 "Hg

Humidity: 82%

Dew Point: 26 °F

Location of EugeneLocation

Past Weather in Eugene — Graph

°F

Eugene Temperature Yesterday

Maximum temperature yesterday: 37 °F (at 12:54 am)
Minimum temperature yesterday: 34 °F (at 9:54 pm)
Average temperature yesterday: 36 °F

High & Low Weather Summary for the Past Weeks

 TemperatureHumidityPressure
High56 °F (Nov 26, 1:54 pm)97% (Nov 26, 2:54 am)30.46 "Hg (Nov 26, 2:54 am)
Low31 °F (Dec 7, 5:57 am)53% (Nov 24, 10:54 am)29.44 "Hg (Nov 26, 2:54 pm)
Average43 °F84%30.10 "Hg
* Reported Nov 22 5:54 pm — Dec 7 5:54 pm, Eugene, Weather by CustomWeather, © 2016

Note: Actual official high and low records may vary slightly from our data, if they occured in-between our weather recording intervals... More about our weather records

Advertising

Eugene Weather History for the Previous 24 Hours

Scroll right to see more
 ConditionsComfort  
Time TempWeatherWind HumidityBarometerVisibility
5:54 pm
Wed, Dec 7
31 °FOvercast.7 mph89%30.14 "Hg10 mi
4:54 pm32 °FOvercast.10 mph85%30.16 "Hg10 mi
3:54 pm33 °FOvercast.13 mph82%30.17 "Hg10 mi
2:54 pm33 °FOvercast.12 mph82%30.20 "Hg10 mi
1:54 pm33 °FOvercast.13 mph82%30.22 "Hg10 mi
12:54 pm33 °FOvercast.12 mph82%30.24 "Hg10 mi
11:54 am33 °FMostly cloudy.13 mph82%30.27 "Hg10 mi
10:54 am33 °FPartly sunny.10 mph82%30.29 "Hg10 mi
9:54 am31 °FLow clouds.8 mph85%30.31 "Hg10 mi
8:54 am32 °FLow clouds.8 mph88%30.31 "Hg7 mi
7:54 am31 °FIce fog.5 mph89%30.33 "Hg3 mi
6:54 am31 °FIce fog.No wind96%30.33 "Hg1 mi
5:57 am31 °FIce fog.8 mph92%30.32 "Hg1 mi
4:54 am33 °FFog.5 mph88%30.33 "Hg6 mi
3:54 am33 °FFog.6 mph92%30.33 "Hg4 mi
2:54 am34 °FFog.6 mph88%30.34 "Hg5 mi
1:54 am33 °FMostly cloudy.6 mph92%30.33 "Hg10 mi
12:54 am35 °FLow clouds.3 mph88%30.33 "Hg10 mi
11:54 pm
Tue, Dec 6
35 °FOvercast.No wind88%30.33 "Hg10 mi
10:54 pm34 °FOvercast.No wind88%30.31 "Hg10 mi
9:54 pm34 °FPassing clouds.No wind88%30.30 "Hg10 mi
8:54 pm36 °FOvercast.No wind85%30.28 "Hg10 mi
Weather by CustomWeather, © 2016

See weather overviewHow to use our weather pages